Temperature
14 15 16 17 18 18 18 18 18 17 17 18 18 19 19 19 19 19 19 18 18 17 17 16 16 16 16 16 16 16 16 15 15 15 15 15 16 16 16 16 17 17 17
15 15 16 17 17 18 18 17 17 17 18 18 19 19 19 19 19 19 18 18 18 17 17 16 16 16 16 16 16 16 16 16 15 15 14 15 15 16 16 16 16 17 17
15 16 17 18 18 17 17 17 17 18 18 19 19 19 19 19 19 19 19 18 18 17 17 17 17 17 17 17 17 16 16 16 15 15 14 14 14 14 16 16 16 17 17
15 16 17 17 18 17 17 18 18 18 19 19 19 19 19 19 19 19 19 19 19 18 18 18 17 17 18 18 17 17 16 16 15 15 14 14 14 14 14 16 16 16 16
15 15 15 16 16 17 17 17 17 17 18 18 18 19 19 19 19 19 19 19 19 18 18 18 18 17 17 17 17 17 16 16 15 14 14 14 14 14 14 14 16 16 16
16 16 15 16 16 16 16 16 16 16 16 17 17 17 17 18 18 18 18 18 18 18 18 17 17 17 17 17 17 17 17 16 15 14 14 14 14 14 14 13 14 15 16
16 16 16 16 16 16 16 16 16 16 16 16 16 16 16 16 16 17 17 17 17 17 17 17 17 17 17 17 17 17 17 16 15 14 14 14 13 13 13 13 14 14 15
16 16 16 16 15 15 15 15 15 15 15 15 15 15 15 15 14 14 14 15 15 16 16 16 16 16 15 16 16 16 16 16 15 14 14 13 13 13 13 13 13 13 14
16 16 16 15 15 15 14 14 14 15 15 15 14 14 14 14 14 14 14 14 13 14 14 14 14 14 14 15 15 15 16 15 15 14 13 13 13 13 13 13 13 13 13
16 16 16 16 15 15 14 14 13 13 14 14 14 14 13 13 13 13 13 13 13 13 13 13 13 13 13 14 14 15 15 14 14 14 13 13 13 13 13 14 14 13 13
16 16 16 16 15 15 14 14 13 13 13 14 14 14 14 13 13 12 12 12 12 13 13 13 13 13 13 13 13 14 14 14 14 14 13 13 13 13 13 14 14 14 14
16 16 15 15 14 14 14 14 14 13 13 13 13 13 13 13 12 12 12 12 12 12 12 12 12 12 13 12 12 13 13 13 13 13 13 13 13 13 13 14 14 14 14
15 14 14 14 14 14 14 14 13 13 13 13 13 13 13 12 12 12 12 12 12 12 11 11 11 11 11 11 12 12 12 13 13 13 13 13 13 13 13 14 14 14 14
14 14 14 14 13 13 13 13 13 13 13 13 13 13 12 12 12 12 12 12 11 11 11 11 11 11 10 10 11 11 12 12 12 13 13 13 13 13 13 14 14 14 14
14 14 14 13 13 13 13 12 12 12 12 12 12 12 12 12 12 12 11 11 11 11 11 11 11 11 11 10 11 11 11 11 12 12 13 13 13 13 13 13 14 14 14
14 13 13 13 13 13 13 12 12 12 12 11 12 12 12 12 12 11 11 11 11 11 11 10 11 11 10 11 11 11 11 11 11 12 12 13 13 13 13 13 13 14 14
14 13 13 13 13 12 12 12 11 11 11 11 11 11 11 11 11 11 11 11 11 11 10 10 10 10 10 10 10 10 10 11 11 11 12 12 13 13 13 13 13 13 13
13 13 12 12 12 12 11 11 11 10 10 10 10 10 10 10 10 10 10 10 10 10 10 10 10 10 10 10 10 10 10 11 11 11 11 12 12 12 13 13 13 13 13
12 12 11 11 11 10 10 9 9 9 8 8 8 8 8 8 8 8 9 9 9 9 9 9 9 9 9 10 10 10 10 10 10 10 11 11 11 12 13 13 12 12 12
11 10 10 9 9 8 7 7 7 6 6 6 6 6 6 6 6 7 7 7 8 8 8 9 9 9 9 9 9 10 10 10 10 10 10 11 11 12 12 12 12 12 12
10 9 8 7 7 6 6 5 5 4 4 4 4 4 4 5 5 5 5 6 6 7 7 7 7 8 8 8 9 9 9 10 10 10 10 10 11 12 12 12 12 12 12
8 7 7 6 6 5 4 4 4 3 3 3 3 3 4 4 4 4 4 4 5 5 6 6 6 7 8 8 8 9 9 9 9 9 9 10 10 11 12 12 12 12 12
7 6 5 4 4 4 4 3 3 3 3 3 3 3 3 4 4 4 4 4 4 5 5 5 6 6 7 7 8 9 9 9 9 9 9 9 10 10 11 11 11 12 11
6 5 4 4 4 4 4 4 3 3 3 3 3 3 3 3 4 4 4 4 4 4 5 5 5 6 6 7 8 8 9 9 9 9 8 9 9 10 10 10 11 11 11
5 5 4 4 4 4 4 4 4 3 3 3 3 3 3 3 3 4 4 4 4 4 4 5 5 6 7 8 8 9 9 9 9 8 8 8 8 9 9 10 11 11 11
5 5 4 4 4 4 4 4 4 4 3 3 3 3 3 3 3 3 4 4 4 5 5 5 5 6 7 8 8 8 8 8 8 8 7 8 8 9 9 10 10 11 11
Wind_Speed
2 2 4 7 9 8 8 9 11 12 12 8 5 4 4 4 3 4 6 7 7 7 5 4 3 3 3 3 2 2 1 1 1 1 3 5 6 7 7 7 7 10 11
8 8 8 8 9 8 6 4 4 6 6 5 4 4 3 3 3 3 5 7 7 6 6 6 5 4 3 1 1 1 1 0 1 2 1 4 5 4 4 4 5 7 6
14 15 15 13 12 11 9 7 7 5 4 4 3 2 1 0 1 3 4 6 6 6 6 7 6 5 4 2 1 0 1 1 0 2 2 1 3 4 4 4 5 5 4
13 12 13 12 12 10 8 8 7 7 7 6 5 4 1 3 4 4 5 6 7 7 7 8 8 6 4 4 2 2 2 2 1 1 2 3 4 2 4 5 4 6 6
8 8 8 9 8 6 6 5 6 6 6 6 5 5 4 3 3 3 3 4 5 6 7 8 8 7 5 5 4 3 3 2 3 3 3 3 3 4 3 5 5 6 5
5 5 5 6 5 4 4 4 5 4 5 6 7 7 7 7 7 6 5 3 3 3 4 6 7 7 6 6 5 5 4 3 4 4 4 4 3 3 3 4 5 6 5
1 2 2 2 1 0 1 2 3 4 5 6 6 7 7 7 7 6 5 5 4 3 5 4 5 6 6 7 6 5 5 4 5 6 5 4 5 4 4 4 5 5 4
1 2 4 4 5 5 5 4 2 1 1 3 3 3 3 2 2 4 4 4 4 4 6 6 3 4 6 7 7 5 6 5 6 7 6 5 5 5 5 5 4 5 4
3 4 5 5 6 7 7 7 6 4 4 4 4 4 4 3 4 3 3 3 4 5 7 8 8 5 5 7 7 6 7 6 6 7 8 6 6 6 6 6 5 4 3
4 6 7 7 6 5 5 5 6 6 7 7 7 6 7 7 7 6 6 5 5 5 6 7 8 9 8 8 7 7 8 8 7 6 7 7 6 6 5 5 5 6 5
9 9 9 9 8 6 5 5 7 8 9 10 9 9 9 8 7 7 8 7 6 6 7 7 7 7 8 8 7 8 9 9 9 8 8 9 8 6 5 5 4 5 5
9 9 9 9 8 9 8 8 9 9 10 11 10 10 10 8 8 9 10 8 8 7 7 7 7 7 7 7 7 8 8 9 9 9 9 9 7 7 6 5 6 5 5
9 8 8 8 8 9 10 10 10 11 12 11 11 11 11 10 11 12 11 10 9 8 7 7 7 8 8 8 8 7 7 7 8 8 9 9 9 8 6 6 6 5 5
6 7 7 7 8 9 9 10 11 11 12 12 11 12 13 14 15 13 11 10 9 9 9 9 8 8 8 9 10 9 8 7 6 7 8 9 9 9 8 7 7 6 6
9 10 9 9 9 9 10 10 10 10 11 12 13 15 16 15 12 11 11 11 9 10 10 10 9 9 8 9 10 9 9 8 7 7 8 9 11 12 10 7 6 6 5
11 12 11 11 11 11 11 10 10 11 11 11 13 14 14 14 13 13 12 11 10 10 10 10 10 10 10 12 14 11 8 8 8 9 8 9 10 13 14 12 10 8 6
14 14 12 12 12 11 11 11 11 10 10 11 12 12 12 13 14 14 12 12 12 10 10 10 9 10 13 17 17 16 10 8 8 8 8 7 8 11 9 10 8 6 6
13 13 12 13 12 11 10 9 9 8 8 9 10 9 7 9 9 9 9 10 8 8 8 8 7 8 12 17 18 18 10 7 7 7 8 9 9 10 11 9 6 6 6
14 13 13 14 11 10 9 8 8 7 7 7 7 7 7 7 7 7 8 7 6 7 7 6 7 8 11 16 17 16 6 6 6 5 7 10 12 16 15 11 9 7 5
11 11 11 10 9 9 9 9 10 10 11 11 10 9 8 8 8 8 8 7 7 7 7 7 8 9 10 14 17 15 6 6 5 4 5 11 15 17 17 12 11 10 7
11 10 10 9 10 11 10 11 13 14 15 15 14 12 11 10 10 9 8 8 7 7 7 8 8 9 11 14 17 16 8 7 5 4 3 4 13 17 18 14 10 12 11
11 9 10 13 14 13 13 16 17 16 15 16 16 15 13 12 12 8 7 8 8 8 8 8 9 9 9 12 14 17 14 9 6 5 3 1 5 10 13 11 14 17 13
10 11 15 17 16 14 13 16 17 15 15 15 16 15 14 12 10 8 9 8 8 7 7 7 8 9 7 9 15 15 14 12 6 4 5 5 8 5 5 10 18 17 11
12 15 17 18 17 16 15 15 16 14 14 15 14 13 11 10 9 8 7 6 6 7 7 7 8 7 6 6 6 7 8 10 7 5 6 8 10 5 0 7 14 11 11
15 16 16 17 18 17 16 16 15 14 15 14 13 11 10 9 8 8 7 8 7 8 8 7 6 6 6 9 13 11 9 9 8 6 3 3 4 4 1 6 8 8 10
15 16 16 16 17 17 17 16 15 14 14 13 11 8 7 7 6 6 7 10 12 14 16 14 9 6 5 7 14 14 12 13 13 7 4 5 5 5 4 6 7 7 9
Wind_Direction
71 41 60 99 113 118 126 146 170 197 218 225 219 203 209 217 200 191 186 181 186 185 184 192 170 137 135 149 141 132 119 241 218 302 311 295 269 255 253 244 240 244 245
59 56 57 63 72 75 82 105 177 215 238 243 227 202 197 212 216 203 198 196 188 182 180 178 175 164 155 148 89 111 119 194 120 122 356 327 326 322 293 284 263 258 250
46 42 43 44 48 47 47 51 45 37 7 337 323 347 58 72 195 214 215 214 197 185 174 178 173 177 170 177 193 228 165 200 324 139 157 205 276 305 299 299 302 311 291
48 48 48 47 49 50 50 46 41 28 12 12 25 23 324 250 236 230 224 216 201 191 183 182 180 180 172 178 201 218 199 181 235 281 204 197 198 248 304 305 303 315 310
47 60 63 62 53 46 48 46 45 30 12 17 23 35 20 324 312 311 276 246 226 211 200 192 186 180 177 183 188 194 208 198 205 218 229 227 219 208 229 292 312 320 301
39 58 72 76 59 31 25 28 36 29 17 25 25 33 29 16 15 13 1 341 315 294 260 222 197 185 178 183 194 198 204 220 231 231 223 217 218 209 215 262 296 301 296
31 13 18 60 125 148 346 12 32 19 17 31 29 25 20 17 13 2 7 9 359 345 329 276 214 189 185 185 186 196 216 223 229 236 234 223 222 218 215 243 270 280 293
286 277 268 261 250 236 228 225 219 245 21 36 19 8 9 5 338 334 333 336 333 326 334 342 297 219 192 193 194 203 217 221 229 236 228 225 239 232 223 224 243 276 288
341 325 308 289 277 268 253 242 234 238 235 220 226 250 264 260 257 259 263 282 299 310 329 331 321 289 242 222 207 210 218 220 227 233 231 231 242 240 236 228 220 228 263
291 292 289 281 277 274 265 257 251 254 257 249 241 240 244 249 255 267 273 269 271 278 294 301 305 300 280 250 226 219 222 223 228 222 227 236 242 243 237 225 214 208 217
253 259 263 265 264 264 257 251 247 245 249 250 249 252 255 256 261 266 271 274 277 277 278 279 282 292 294 282 253 233 223 224 229 227 229 239 241 237 228 212 198 198 201
274 278 282 284 280 277 276 269 259 250 248 249 251 253 258 263 268 268 267 265 268 271 269 272 278 284 293 302 292 270 248 231 230 230 228 238 241 231 221 209 202 198 199
319 321 315 302 286 280 279 277 274 269 265 255 246 248 253 255 258 261 264 264 261 265 269 262 261 268 275 281 284 284 274 250 239 235 229 232 232 235 226 213 206 208 210
323 311 299 286 279 274 273 273 274 273 273 268 255 246 246 246 249 254 257 261 263 266 269 262 250 250 259 266 267 265 266 261 254 247 240 234 227 227 221 210 210 212 215
308 296 283 269 265 264 263 259 258 260 262 261 254 247 246 245 244 246 252 255 255 256 259 264 258 248 249 257 254 250 250 249 252 255 249 244 235 224 206 198 205 203 198
296 290 279 268 262 259 257 256 258 261 264 260 254 249 245 241 238 239 243 248 251 253 254 257 259 258 259 256 252 246 245 248 251 258 257 248 233 211 199 196 194 189 176
303 300 289 275 268 264 263 264 266 270 273 269 264 257 247 237 232 229 226 228 231 235 242 248 252 257 257 253 251 248 238 243 250 256 253 243 216 189 179 178 170 159 146
303 297 291 287 283 281 283 282 285 288 287 286 287 283 267 249 236 223 216 213 205 203 214 226 237 257 262 252 245 244 237 241 254 261 246 221 204 193 175 160 148 135 124
293 297 299 298 297 298 300 303 305 306 305 303 301 301 304 292 269 244 232 222 214 211 213 218 229 246 259 254 241 235 223 231 247 267 260 226 204 192 171 155 147 134 120
303 304 306 309 316 317 317 314 309 306 300 294 286 280 276 274 273 266 253 237 223 227 232 238 237 243 252 250 236 222 207 218 233 256 271 231 205 184 171 160 156 150 143
309 318 332 338 328 320 316 310 305 301 299 297 291 284 277 270 264 257 249 244 240 240 239 243 245 247 249 246 232 216 200 201 208 219 253 240 203 181 174 163 164 160 146
328 339 333 322 316 313 310 307 303 301 301 299 295 289 283 278 278 262 252 246 243 242 237 237 250 254 250 241 231 217 205 188 183 193 198 165 169 182 176 167 156 147 138
329 329 326 323 322 318 312 308 305 303 301 300 297 293 288 280 273 268 265 257 241 232 231 233 246 253 244 234 227 215 203 186 174 167 154 123 121 142 180 176 155 148 144
332 334 331 329 325 321 314 307 305 302 297 296 296 293 288 279 273 268 262 256 243 234 235 236 240 244 237 219 202 194 187 181 171 154 140 120 117 112 286 175 165 158 156
337 334 331 327 324 322 319 314 311 305 299 293 290 288 281 276 272 267 259 253 246 239 233 233 229 225 235 223 194 182 181 182 180 156 141 147 138 130 172 180 173 157 150
337 332 329 327 324 324 321 318 315 311 306 300 294 287 282 274 267 270 276 259 249 253 242 236 234 236 237 192 174 175 169 166 165 157 166 166 157 154 183 181 164 154 151
Height
1507 1503 1499 1495 1493 1493 1493 1494 1497 1498 1499 1503 1504 1503 1502 1502 1502 1501 1501 1500 1499 1498 1498 1498 1496 1495 1495 1496 1496 1496 1496 1497 1498 1499 1498 1499 1499 1498 1498 1498 1497 1496 1495
1504 1502 1500 1498 1496 1496 1497 1497 1499 1500 1501 1502 1502 1500 1499 1499 1500 1499 1500 1499 1498 1497 1495 1494 1494 1493 1493 1493 1493 1493 1493 1493 1495 1495 1495 1495 1495 1494 1494 1493 1493 1492 1492
1496 1496 1497 1497 1497 1498 1498 1498 1499 1499 1499 1499 1499 1498 1496 1495 1496 1496 1497 1497 1497 1495 1493 1492 1491 1491 1491 1490 1490 1491 1491 1491 1493 1493 1493 1493 1492 1490 1488 1489 1488 1488 1488
1496 1497 1499 1499 1499 1499 1499 1499 1498 1498 1498 1497 1496 1494 1493 1492 1492 1493 1493 1494 1493 1492 1491 1490 1489 1488 1488 1488 1488 1488 1489 1489 1490 1490 1490 1490 1490 1489 1485 1484 1484 1483 1483
1503 1502 1501 1501 1501 1501 1500 1499 1498 1497 1496 1495 1493 1491 1490 1489 1488 1488 1489 1489 1489 1489 1488 1487 1487 1486 1486 1486 1486 1486 1486 1487 1488 1488 1487 1486 1486 1486 1485 1480 1478 1478 1478
1507 1505 1504 1503 1503 1503 1502 1500 1497 1495 1493 1491 1489 1487 1486 1485 1484 1483 1483 1483 1483 1483 1483 1483 1483 1482 1482 1483 1484 1484 1483 1484 1484 1484 1484 1483 1482 1481 1480 1478 1475 1473 1473
1507 1505 1504 1503 1503 1502 1502 1500 1497 1494 1491 1488 1486 1485 1483 1482 1480 1479 1478 1477 1476 1476 1477 1477 1477 1478 1478 1479 1480 1481 1480 1480 1481 1481 1480 1479 1478 1476 1475 1474 1472 1470 1468
1507 1505 1503 1502 1501 1500 1499 1498 1496 1494 1491 1489 1487 1485 1483 1481 1478 1475 1473 1471 1470 1470 1470 1470 1470 1472 1474 1475 1476 1477 1477 1477 1477 1477 1476 1475 1474 1472 1471 1470 1469 1466 1464
1507 1505 1502 1500 1498 1496 1495 1493 1492 1490 1489 1486 1485 1483 1481 1478 1476 1473 1470 1468 1465 1464 1463 1463 1465 1467 1469 1470 1471 1471 1472 1472 1473 1473 1472 1470 1469 1468 1467 1465 1464 1464 1461
1507 1503 1500 1498 1495 1492 1490 1488 1487 1486 1485 1483 1481 1478 1476 1473 1471 1468 1466 1463 1461 1460 1459 1459 1459 1460 1462 1464 1465 1465 1466 1467 1468 1468 1467 1466 1465 1464 1462 1461 1460 1459 1458
1504 1501 1497 1494 1491 1488 1486 1484 1482 1480 1479 1477 1475 1473 1470 1467 1465 1462 1460 1457 1455 1454 1454 1454 1454 1454 1455 1456 1458 1459 1460 1461 1462 1462 1462 1461 1460 1459 1458 1457 1456 1455 1454
1503 1499 1495 1492 1489 1486 1483 1480 1478 1475 1473 1471 1469 1466 1464 1462 1459 1457 1455 1454 1452 1451 1449 1449 1448 1448 1448 1449 1450 1451 1453 1454 1455 1455 1456 1456 1455 1454 1453 1452 1450 1449 1448
1501 1498 1494 1490 1487 1483 1480 1477 1474 1470 1467 1465 1462 1459 1457 1456 1453 1452 1450 1449 1448 1446 1445 1445 1444 1442 1442 1442 1443 1444 1445 1446 1447 1448 1449 1449 1450 1449 1448 1447 1445 1444 1442
1499 1496 1492 1488 1484 1480 1477 1473 1469 1465 1461 1457 1454 1451 1449 1448 1446 1445 1444 1443 1442 1440 1440 1439 1438 1438 1437 1436 1437 1438 1439 1439 1440 1440 1441 1442 1443 1444 1443 1442 1440 1438 1436
1495 1491 1486 1482 1478 1474 1470 1466 1461 1457 1453 1449 1446 1443 1441 1439 1438 1437 1436 1436 1435 1434 1433 1433 1433 1433 1433 1432 1431 1432 1433 1433 1433 1433 1433 1434 1436 1437 1437 1436 1435 1433 1431
1489 1484 1480 1475 1470 1465 1461 1456 1452 1448 1444 1440 1437 1434 1432 1430 1428 1428 1428 1428 1428 1428 1427 1427 1427 1428 1428 1428 1428 1428 1428 1427 1426 1425 1425 1427 1429 1431 1431 1431 1430 1429 1427
1482 1477 1472 1467 1462 1456 1451 1445 1441 1437 1434 1431 1428 1425 1422 1420 1418 1418 1418 1419 1419 1420 1421 1421 1421 1421 1422 1422 1422 1422 1422 1421 1419 1418 1417 1418 1421 1424 1425 1426 1426 1424 1423
1476 1470 1464 1458 1453 1447 1442 1436 1431 1427 1423 1420 1417 1414 1412 1410 1410 1409 1409 1410 1411 1411 1412 1413 1413 1414 1414 1415 1415 1415 1415 1414 1413 1411 1410 1411 1414 1417 1420 1421 1422 1421 1421
1471 1465 1459 1452 1445 1439 1433 1427 1421 1416 1412 1408 1406 1404 1402 1401 1400 1400 1400 1401 1402 1402 1403 1403 1404 1404 1405 1406 1407 1408 1408 1407 1406 1405 1404 1405 1408 1411 1415 1417 1418 1419 1420
1465 1458 1451 1444 1437 1430 1423 1417 1411 1406 1401 1397 1393 1391 1389 1389 1389 1389 1389 1390 1391 1392 1393 1393 1393 1394 1394 1396 1398 1400 1400 1400 1400 1399 1398 1398 1401 1406 1409 1412 1415 1417 1419
1458 1451 1443 1436 1429 1422 1415 1408 1402 1396 1391 1386 1381 1377 1376 1375 1375 1376 1377 1379 1380 1381 1381 1382 1382 1383 1383 1385 1388 1391 1392 1393 1394 1393 1393 1393 1396 1401 1405 1409 1413 1416 1419
1451 1443 1436 1428 1421 1413 1406 1398 1391 1386 1380 1375 1370 1367 1364 1364 1364 1364 1365 1367 1368 1369 1370 1371 1372 1372 1374 1376 1379 1383 1385 1387 1388 1388 1388 1388 1391 1397 1402 1408 1412 1416 1419
1446 1438 1429 1421 1413 1406 1399 1391 1384 1379 1373 1368 1363 1360 1357 1355 1355 1355 1355 1356 1357 1358 1360 1361 1362 1363 1366 1368 1372 1376 1379 1381 1382 1383 1384 1385 1388 1393 1399 1405 1411 1414 1418
1440 1431 1423 1415 1407 1400 1393 1386 1379 1372 1367 1361 1357 1354 1351 1349 1349 1349 1349 1349 1349 1350 1351 1353 1355 1357 1360 1362 1365 1369 1372 1375 1377 1379 1380 1382 1385 1390 1396 1402 1408 1413 1417
1435 1427 1419 1411 1403 1395 1388 1381 1374 1367 1361 1355 1351 1348 1346 1344 1344 1343 1343 1343 1344 1345 1346 1347 1350 1352 1354 1357 1360 1363 1366 1369 1372 1375 1377 1379 1383 1387 1392 1398 1405 1411 1416
1431 1423 1415 1408 1401 1393 1386 1379 1371 1364 1357 1351 1346 1344 1342 1340 1340 1340 1340 1340 1340 1341 1342 1343 1345 1348 1350 1353 1356 1359 1362 1366 1368 1371 1373 1377 1380 1384 1389 1395 1402 1408 1415